Weather History for Homer, AK

Change the Weather History Date:

Saturday, July 12, 2014

  Actual Average Record
Temperature  
Mean Temperature 56 °F -  
Max Temperature 62 °F 61 °F 75 °F (2004)
Min Temperature 51 °F 48 °F 37 °F (1956)
Degree Days  
Heating Degree Days 8    
Growing Degree Days 6 (Base 50)    
Moisture  
Dew Point 43 °F    
Average Humidity 62    
Maximum Humidity 80    
Minimum Humidity 46    
Precipitation  
Precipitation 0.05 in - - ()
Sea Level Pressure  
Sea Level Pressure 29.92 in    
Wind  
Wind Speed 3 mph (East)    
Max Wind Speed 9 mph    
Max Gust Speed -    
Visibility 10 miles    
Events Rain    
Averages and records for this station are not official NWS values.
T = Trace of Precipitation, MM = Missing Value Source: NWS Daily Summary

Daily Weather History Graph

Daily Weather History Graph

Search for Another Location

Airport:

Trip Planner

Search our weather history database for the weather conditions in past years. The results will help you decide how hot, cold, wet, or windy it might be!

Date:

Astronomy

Jul. 12, 2014 Rise Set
Actual Time 5:07 AM AKDT 11:14 PM AKDT
Civil Twilight 3:49 AM AKDT 12:31 AM AKDT
Nautical Twilight Sun does not rise Sun does not rise
Astronomical Twilight Sun does not rise Sun does not rise
Moon 10:44 PM AKDT (7/12) 6:09 AM AKDT (7/12)
Length of Visible Light 20h 42m
Length of Day
18h 06m
Full, 100% of the Moon is Illuminated
Jul 12
Full
Jul 18
Last Quarter
Jul 26
New
Aug 3
First Quarter
Aug 10
Full

Hourly Weather History & Observations

Time (AKDT) Temp. Dew Point Humidity Pressure Visibility Wind Dir Wind Speed Gust Speed Precip Events Conditions
12:53 AM 55.9 °F 41.0 °F 57% 29.79 in 10.0 mi Calm Calm - N/A   Partly Cloudy
1:53 AM 55.0 °F 42.1 °F 62% 29.82 in 10.0 mi East 4.6 mph - N/A   Clear
2:53 AM 55.9 °F 42.1 °F 60% 29.82 in 10.0 mi ESE 6.9 mph - N/A   Mostly Cloudy
3:53 AM 55.9 °F 43.0 °F 62% 29.83 in 10.0 mi Calm Calm - N/A   Overcast
4:53 AM 54.0 °F 43.0 °F 66% 29.84 in 10.0 mi Calm Calm - N/A   Overcast
5:53 AM 55.0 °F 43.0 °F 64% 29.86 in 10.0 mi Variable 3.5 mph - N/A   Overcast
6:53 AM 54.0 °F 44.1 °F 69% 29.88 in 10.0 mi Calm Calm - N/A   Mostly Cloudy
7:53 AM 54.0 °F 45.0 °F 72% 29.89 in 10.0 mi Calm Calm - N/A   Mostly Cloudy
8:53 AM 57.0 °F 44.1 °F 62% 29.90 in 10.0 mi NNE 3.5 mph - N/A   Mostly Cloudy
9:53 AM 57.9 °F 43.0 °F 58% 29.91 in 10.0 mi East 5.8 mph - N/A   Mostly Cloudy
10:53 AM 60.1 °F 41.0 °F 49% 29.91 in 10.0 mi ENE 6.9 mph - N/A   Overcast
11:53 AM 61.0 °F 39.9 °F 46% 29.92 in 10.0 mi ENE 5.8 mph - N/A   Overcast
12:53 PM 59.0 °F 42.1 °F 53% 29.94 in 10.0 mi East 4.6 mph - N/A   Overcast
1:53 PM 57.9 °F 44.1 °F 60% 29.94 in 10.0 mi Calm Calm - N/A   Overcast
2:53 PM 57.9 °F 45.0 °F 62% 29.95 in 10.0 mi South 4.6 mph - N/A   Overcast
3:53 PM 59.0 °F 43.0 °F 55% 29.96 in 10.0 mi East 4.6 mph - N/A   Overcast
4:53 PM 57.0 °F 43.0 °F 59% 29.97 in 10.0 mi ESE 9.2 mph - 0.00 in Rain Light Rain
5:53 PM 57.9 °F 43.0 °F 58% 29.98 in 10.0 mi ESE 4.6 mph - 0.00 in Rain Light Rain
6:53 PM 57.9 °F 41.0 °F 53% 29.98 in 10.0 mi SE 6.9 mph - 0.00 in   Overcast
7:53 PM 55.9 °F 43.0 °F 62% 29.99 in 10.0 mi Variable 5.8 mph - 0.01 in Rain Light Rain
8:53 PM 54.0 °F 46.0 °F 75% 30.00 in 7.0 mi North 3.5 mph - 0.03 in Rain Light Rain
9:53 PM 53.1 °F 46.9 °F 80% 30.01 in 10.0 mi NNE 3.5 mph - 0.01 in   Overcast
10:53 PM 52.0 °F 45.0 °F 77% 30.02 in 10.0 mi NNE 4.6 mph - N/A   Mostly Cloudy
11:53 PM 51.1 °F 44.1 °F 77% 30.03 in 10.0 mi NE 3.5 mph - N/A   Mostly Cloudy